SIRION Pathfinder 2

operational
NORAD ID: 43759 Int'l Des: 2018-099 Owner: SIRION/HELW Country: AU
LEOCIRCULARRETROGRADESSO

SIRION Pathfinder 2について

説明を読み込み中...

リアルタイム位置

3D地球を読み込み中...

次回通過

高度履歴

Altitude vs Time

uPlot chart will show altitude changes over time

軌道要素

1 43759U 18099B 26063.09802829 .00008564 00000-0 48206-3 0 9996
2 43759 97.4397 114.6561 0007597 309.3064 50.7493 15.13455558396723
Epoch: Mar 4, 2026 • Age: 12 hours

現在のステータス

高度 539.5 km
速度 7.60 km/s
衛星直下点 65.71°N, 113.56°E
打ち上げ日 Dec 3, 2018
運用期間 7.2 years
タイプ other

技術仕様

分類 Payload
質量 10.00 kg
乾燥質量 10.00 kg
総質量 10.00 kg
長さ 0.30 m
直径 0.20 m
スパン 1.30 m
形状 Box+2 pan
製造者 ADIG
バスタイプ Cubesat 6U
フェーズステータス In Orbit
所有者/国 SIRION/HELW/AU

大規模コンステレーション

Loading constellations...